COSMOS 1627

导读 | 豆包AI

COSMOS 1627是苏联(发射时归属独联体CIS区域)于1985年2月1日08:00发射的卫星,隶属于苏联/俄罗斯“宇宙(Cosmos/Kosmos)”系列无人卫星。该系列卫星自1962年启动,广泛应用于科学研究、导航与军事侦察等领域,苏联时期常以此命名掩盖其他项目任务属性,COSMOS 1627也延续了这一命名传统,服务当时航天发展需求。

基本信息
目录编号:
15505
目录名称:
COSMOS 1627
国际标识:
1985-011A
轨道中心:
EARTH
卫星名称:
COSMOS 1627
卫星全名:
--
卫星状态:
在轨 (已飞行15016 天)
发射日期:
1985-02-01 UTC
国别 :
俄罗斯(独联体) (CIS)
星等 :
--
轨道信息
数据来源 国际轨道数据 AOE轨道数据
星历时间 2026-03-13T22:57:26+0800
10小时前
查看轨道信息
2026-03-10T17:00:00+0800
3天前
查看轨道信息
半长轴 7361.264km 7361.265km
偏心率 0.0040568 0.004047
轨道倾角 82.919° 82.920°
近地点辐角 254.252° 263.801°
升交点赤经 118.186° 120.598°
平近点角 275.103° 40.688°
近地点 953.263km 953.336km
远地点 1012.991km 1012.92km
周期 104.758分钟 104.758分钟
每日圈数 13.745933 13.745929
详细信息
使用方式:
暂无
2D轨道图
3D轨道图
轨道高度分析图
轨道倾角分析图
轨道综合分析图
查看轨道综合分析图